CAPE
2798 2826 2766 2507 1988 2098 2067 2118 2059 1972 1912 1718 1510 1249 1157 1516 1432 1527 1804 1590 1353 2192 1610 1804 2037 2064 2224 2303 2162 2470 2465 2607 3058 2985 3508 3493 3367 3617 3541 3707 3714 3561 3893 3679 3710 3342 2933 2645 2695 2778 2520 2242 2485 2526 2254 2421 2454 1899 2461 2837 2502 2066 1739 2224 2123 2078 2154 3180 3171 2847 2694 2661 2554 2067 1394 2363 3455 3085 3062 4218 4265 4035 3654 3504 3442
2636 2654 2559 2368 2016 2027 2012 1987 1990 1940 1897 1738 1470 1024 1147 1256 1367 1216 1580 1528 1362 1523 1506 1864 1766 1950 1944 1958 1806 1889 2161 2028 2240 2750 2856 3302 3118 3364 3379 3606 3567 3491 3589 3368 3099 2912 3548 3133 3119 3378 2956 2152 2441 2554 2471 2233 2065 2198 1922 1783 1774 2274 2822 2092 2166 2043 1916 2228 2386 2641 3303 2963 2632 3226 3505 2643 2740 3860 3466 3954 3834 3625 3418 3384 3271
2866 2590 2167 1973 2042 1911 2030 2019 1937 1907 1803 1644 1631 1363 1048 1032 1280 1181 1192 1312 1196 1016 1378 1410 1684 1771 1824 1860 1721 1715 2017 1924 1954 2591 2539 2890 2897 2802 2629 2795 3481 3372 3382 3375 3262 3100 2638 3078 3389 3224 3250 2896 2503 2332 2331 2265 2127 1920 1793 1779 1550 1560 1792 2292 2256 2319 2262 2333 2937 3251 2901 3082 3432 2978 3006 3260 3259 3264 2922 2661 3665 3511 3641 3414 3434
2433 2384 2067 1676 1551 1713 1864 1998 2042 1877 1662 1564 1432 1373 1198 939 1208 1198 1011 1085 1118 1015 833 937 1051 1608 1628 1690 1668 1542 2006 2083 1943 1997 2562 2493 2711 2589 2468 2322 2272 2981 3224 3209 3099 2972 2936 2721 2872 3278 3142 2954 2823 2549 2206 2116 1960 1904 2012 2076 1715 1561 1464 1647 2051 1935 2115 2177 2613 2926 3231 3450 3305 3470 3592 3342 3104 2939 3002 3051 2895 3164 3821 3849 3600
2150 1974 1710 1575 1685 1707 1547 1691 2053 2058 1688 1370 1259 1208 1021 971 917 1139 1110 926 951 1072 920 593 510 1358 1494 1408 1550 1332 1778 1963 1761 1654 2016 2372 2438 2424 2356 2417 2402 2069 2246 2470 3210 2736 2605 2538 2534 2649 2732 2793 2704 2720 2446 2175 2005 1938 1816 1630 1965 1823 2171 2169 2297 2254 1942 2365 2686 3332 3512 3564 3849 3877 3810 3632 3372 3018 3093 3584 3536 3295 3171 3870 3559
1875 1888 1709 2096 1764 1584 1257 1366 1760 2104 1992 1450 1110 944 878 758 925 838 947 964 373 446 985 864 641 926 1417 1320 1490 1382 1286 1761 1544 1319 1270 1846 2352 2364 2274 2111 2154 2324 1995 1976 2129 2401 2463 2378 2195 2218 2265 2241 2340 2480 2493 2334 2145 1994 1807 1670 1667 1932 1687 1605 2129 2350 2561 2550 2630 2507 3276 3829 4076 3893 3433 3083 2910 2799 3034 3067 2858 2644 2602 3550 3700
1688 1461 1410 1875 1989 1597 1697 1498 1457 1481 1780 1843 1493 1072 734 378 368 850 868 792 539 319 318 952 956 875 1176 1258 1181 1556 1280 1378 1496 1248 1098 1095 1541 2167 2181 2056 1863 1743 1996 2035 1894 1844 1865 1974 2080 2009 1951 2010 2054 2016 1984 1959 1910 1899 1876 1642 1432 1582 2194 1924 1474 1320 1726 1987 2372 3106 3288 3229 3130 2918 3001 3111 3506 3669 3579 3254 2810 2834 3206 3664 3379
2331 2448 2091 2138 2186 2203 2228 1997 1671 1294 1320 1428 1574 1275 912 1538 999 232 908 788 631 458 244 357 958 1155 1185 1137 1039 1090 1411 1339 1387 1573 1388 1183 1147 1327 1704 1815 1777 1597 1472 1426 1527 1641 1691 1686 1603 1620 1679 1681 1743 1838 1819 1750 1969 2067 1992 1797 1509 1597 1554 1606 1939 2230 2135 2137 2307 2379 2640 2924 3141 3375 3472 3603 3480 2897 3408 3351 3027 2846 2686 2777 3710
2176 2604 2472 2191 2205 2081 1521 1650 1849 1743 1513 1438 1224 1150 1204 2197 2042 1552 314 882 816 670 322 222 360 1043 1378 1249 1066 933 1087 1388 1341 1554 1775 1625 1462 1350 1206 1224 1419 1581 1510 1322 1190 1108 1045 1048 1118 1184 1275 2360 1944 1949 1831 1958 1577 1697 1786 1706 1557 1668 1705 1673 1585 1684 2140 2807 3032 3123 3103 3042 3221 3693 3394 2720 2520 1880 1662 2076 2729 2722 2416 2695 3388
2254 1871 1718 1654 1978 2079 1504 1635 1938 1628 1549 1466 1468 1809 1900 1903 1658 1917 1258 1379 807 763 502 108 283 432 954 1321 1223 1047 977 1139 1554 1368 1594 1782 1623 1418 1350 1169 1010 1093 1278 1319 1192 1045 960 856 797 1778 1950 2012 1708 1476 1477 1932 2518 1695 1498 1627 1540 1558 1750 1848 1830 1654 1472 1486 1732 2086 2288 2298 2230 2070 1887 1793 1666 1698 2063 2345 2884 3045 2960 3202 3079
1578 1612 1912 1996 1858 2119 2478 2099 1857 2104 2190 2082 2226 1980 1765 1650 1767 1900 1596 1652 980 648 984 288 32 354 445 957 1173 1097 1014 1070 1209 1300 1274 1464 1603 1534 1334 1144 1043 964 833 862 930 910 832 829 822 1359 2021 2474 2700 1571 1119 1136 1367 2218 2290 2501 2252 1563 1635 1998 2144 2201 2131 2000 1869 1922 1960 1925 1903 1875 1928 1990 2063 2105 2078 2009 2184 2563 2855 2832 2842
876 959 1238 1425 1534 1600 1910 2328 2147 2454 2707 2546 2081 1968 2008 2061 2038 2180 1907 1331 1525 988 686 698 787 447 238 496 880 1041 1021 1013 1115 1220 1215 1199 1371 1536 1366 1216 973 790 792 730 638 662 693 659 603 420 392 381 244 961 1345 1102 1024 1089 1339 1657 2613 3285 2357 2004 1958 2237 2471 2435 2434 2419 2319 2222 2138 2064 1936 1695 1538 1430 1776 1934 1850 1932 2037 2334 2204
860 802 792 1048 1296 1281 1379 1683 2001 2052 2147 2159 1593 1676 1830 1779 1817 1830 1830 1545 1388 1552 907 738 784 800 991 168 417 746 910 959 998 1112 1209 1177 1187 1249 1289 1238 1069 779 258 310 327 338 399 421 376 271 187 438 931 711 715 1083 1022 846 934 1017 1106 1938 2970 2939 2553 2323 2157 2266 2183 2115 2214 2226 2148 2120 2033 2070 2073 2006 1817 1620 1335 1149 1097 1051 1008
579 676 727 751 896 1072 1307 1376 1418 1704 1898 1772 1929 2112 1585 1534 1768 1930 1853 1798 1575 1344 1348 938 819 744 909 1259 959 318 670 784 902 966 1017 1090 1107 1090 1136 1102 999 852 415 107 146 169 139 188 256 273 188 166 125 45 127 890 1110 1015 899 848 844 1122 1354 1369 1775 2304 2588 2540 2439 2259 2200 2167 2138 2024 2014 1956 1877 1784 1729 1618 1399 1241 1207 1072 907
517 513 508 572 656 715 835 949 1037 1194 1404 1519 1415 1610 1823 1720 1708 1665 1716 1818 1737 1532 1402 1217 1095 932 944 1135 1438 1527 542 636 204 621 655 831 878 1006 1013 978 906 786 534 147 11 9 35 87 76 82 103 131 109 157 32 54 899 1292 1098 831 715 730 828 998 1077 1022 1065 1566 2127 2361 2369 2445 2510 2465 2360 2222 2284 2201 2001 1797 1544 1298 1184 1220 1781
454 471 506 488 474 510 594 681 714 939 1446 1196 1048 1268 1328 1571 1646 1727 1925 1693 1496 1551 1512 1359 1210 1043 1022 1240 1620 1662 1721 1324 1173 810 759 737 650 604 809 845 856 747 555 350 153 309 170 26 43 50 31 52 338 435 585 311 290 1085 1436 1324 1087 906 866 947 988 1005 935 822 843 963 1092 1235 1505 1770 1926 2012 2125 2271 2310 2251 2145 2204 2167 2047 1811
113 178 227 316 400 468 525 521 489 472 900 1086 1031 776 1123 1130 1504 1468 1473 1512 1470 1492 1390 1339 1252 1296 1479 1892 1930 1778 1710 1640 1504 1397 1454 1672 1598 1373 1133 866 624 654 489 474 460 467 493 512 519 490 460 371 367 79 54 565 544 894 1440 1612 1613 1460 1308 1276 1278 1290 1241 1167 1038 914 817 780 889 890 800 1012 1302 1422 1557 1851 2011 2014 1806 1620 1544
0 0 0 72 121 183 253 706 379 450 554 815 1028 1155 1172 1242 1280 1900 2119 1854 1731 1679 1497 1443 1430 1495 1479 1548 2059 1898 1778 1718 1773 1543 1321 1367 1546 1723 1783 1608 1295 951 666 530 501 507 530 847 1301 582 622 705 1155 1202 975 906 900 930 1213 1810 1915 1884 1797 1711 1756 1618 1533 1513 1470 1404 1550 1698 1599 1434 1265 1094 773 698 1019 1008 953 1982 2393 2414 2259
0 0 0 0 0 0 21 135 210 364 562 623 853 858 929 840 923 1222 1684 2258 2106 1866 1784 1653 1554 1631 1728 1694 1820 2074 1770 1648 1708 1687 1548 1352 1315 1518 1761 1751 1474 1246 1068 860 698 630 607 1030 2268 2012 1178 767 632 597 1025 1342 1371 1312 1261 1213 1523 1890 2106 2309 2501 2646 2588 2520 2558 2601 2567 2398 2173 1934 1712 1507 1218 775 312 480 650 626 607 734 1087
0 0 0 0 0 0 0 11 18 10 312 686 850 1005 1281 1305 1100 1193 1501 1751 2041 2201 2107 1991 1966 1983 1939 1904 1939 2544 1973 1952 1813 1628 1705 1564 1476 1414 1500 1662 1582 1337 1157 1107 1048 899 769 717 1109 1117 1375 1592 1544 1371 1154 948 928 1172 1273 1285 1265 1276 1289 1407 1762 2305 2638 2718 2692 2606 2507 2341 2095 1894 1728 1583 1425 1276 1120 819 544 519 576 600 638
0 0 0 0 0 0 0 0 0 0 0 212 717 1114 1220 1186 1167 956 765 1392 1856 1863 1892 1812 1834 1784 1776 1854 1997 2437 2158 2117 2012 1899 1648 1352 1190 1164 1150 1278 1571 1543 1279 1212 1274 1254 1119 1026 1175 1251 1272 1272 1244 1245 1242 1238 1172 1053 983 1098 1165 1197 1190 1203 1223 2230 1915 1968 2144 2315 2342 2279 2198 2116 1978 1792 1584 1414 1324 1261 1167 968 734 660 681
1 0 0 0 0 0 0 0 0 0 0 2 55 427 786 1128 1006 704 1139 1506 1476 1602 1691 1686 1705 1728 1775 1770 2108 2934 2491 2558 2184 2217 2081 1756 1476 1425 1437 1424 1416 1616 1587 1329 1376 1584 1636 1550 1427 1376 1390 1348 1293 1242 1194 1106 1165 1198 1173 1106 1035 964 1087 1225 1264 1324 1546 1782 1882 1906 2128 2282 2222 2123 2021 1990 1956 1845 1674 1480 1368 1307 1199 1014 849
3 0 1 2 0 0 0 0 0 0 0 1 131 290 526 949 1028 1152 1210 1506 1455 1322 1370 1619 1774 1756 1624 1694 1793 1887 2181 2550 2317 2140 2128 2134 1986 1690 1476 1464 1628 1690 1698 1676 1665 1726 1594 1570 1649 1728 1794 1786 1742 1672 1604 1510 1608 1592 1565 1548 1555 1620 1663 1739 1785 1756 1658 1737 1969 2062 2097 2303 2534 2535 2427 2277 2129 2014 1934 1811 1679 1560 1451 1340 1220
0 6 24 2 0 0 0 0 0 0 0 39 0 0 1 256 1096 1086 1203 1383 1174 946 902 1102 1237 1298 1331 1316 1341 1406 1690 1984 1976 1951 1978 2104 2322 2406 2172 1678 1276 1532 1700 1772 1839 1832 1705 1533 1543 1647 1751 1715 1719 1770 1763 1692 1974 2064 2106 2114 2092 2102 2101 2150 2180 2134 2020 1860 1881 1919 1969 2039 2380 2789 2938 2865 2704 2473 2281 2170 2105 2018 1908 1808 1777
2 20 4 1 0 0 0 0 0 0 0 0 0 0 14 5 147 884 1185 1031 874 611 633 788 954 1116 1161 1189 1203 1238 1394 1554 1672 1762 1923 2214 2407 2731 2779 2537 2177 1832 1648 1595 1695 1722 1679 1701 1729 1867 1996 2053 2067 2076 2124 2167 2196 2209 2183 2142 2103 2191 2225 2259 2287 2219 2179 2127 1988 1877 1974 1998 2004 2061 2370 2834 3065 3077 2940 2704 2496 2411 2399 2362 2335
0 0 0 5 5 1 0 0 0 0 0 0 0 0 0 0 374 1525 1297 1143 942 681 573 458 585 708 822 940 1015 1098 1190 1426 1541 1632 1750 1908 2175 2452 2748 2740 2605 2403 2074 1811 1684 1680 1722 1777 1766 1743 1712 1877 2039 2116 2104 2038 1914 1772 1686 1679 1706 1944 2163 2321 2366 2310 2254 2245 2191 2058 1946 1975 2029 2046 2002 1963 2084 2288 2509 2721 2778 2691 2568 2548 2528
0 0 0 5 2 0 0 0 0 0 0 0 0 0 0 0 0 31 273 222 56 187 196 120 248 412 490 570 650 750 862 969 1273 1486 1766 2201 2206 2315 2439 2364 2263 2156 2177 2027 1809 1672 1630 1653 1705 1704 1660 1584 1557 1534 1528 1523 1608 1550 1501 1566 1518 1606 1711 1800 1932 2155 2352 2304 2263 2204 2132 1983 1907 1828 1938 1910 1855 1787 1771 1984 2103 2194 2189 2121 1968
0 0 0 1 8 4 2 6 0 0 0 0 0 0 0 0 0 0 0 0 0 0 0 0 40 145 230 305 362 442 522 608 763 1055 1240 1376 1643 1678 1727 2081 2177 2035 1935 1942 1810 1680 1556 1556 1580 1611 1618 1589 1525 1449 1427 1420 1388 1375 1395 1511 1558 1472 1518 1548 1627 1898 2155 2301 2265 2201 2171 2150 2118 2062 1992 1946 1859 1857 1684 1593 1591 1660 1706 1754 1743
8 1 0 0 1 22 7 4 0 0 0 0 0 0 0 0 0 0 0 0 0 0 0 0 0 0 4 125 171 224 246 332 400 517 776 933 1062 1318 1502 1567 1787 1810 1876 1804 1782 1806 1832 1838 1705 1534 1466 1554 1623 1667 1661 1600 1511 1456 1451 1460 1496 1516 1541 1575 1532 1400 1828 2165 2204 2187 2170 2168 2164 2123 2068 2002 1980 1915 1838 1732 1604 1409 1544 1537 1485
5 6 5 2 7 20 29 3 2 3 3 0 0 0 0 0 0 0 0 0 0 0 0 0 0 0 0 0 0 50 145 178 198 246 378 556 669 704 771 876 1092 1463 1570 1533 1552 1649 1737 1750 1761 1768 1705 1606 1596 1589 1564 1530 1519 1522 1518 1502 1511 1514 1510 1456 1275 1155 1139 1594 2161 2202 2226 2198 2162 2108 2045 2016 1956 1897 1844 1763 1656 1506 1640 1622 1553
9 0 4 4 11 24 34 16 18 3 0 0 1 0 0 0 0 0 0 0 0 0 0 0 0 0 0 0 0 0 0 93 119 133 134 257 424 496 476 428 525 949 1201 1318 1477 1511 1533 1550 1672 1783 1891 1831 1700 1618 1573 1558 1567 1575 1547 1447 1408 1351 1518 1646 1681 1675 1694 1679 1667 1898 2014 2102 2122 2111 2067 1989 1897 1839 1819 1771 1691 1660 1580 1655 1660
8 2 0 0 4 48 50 30 26 21 13 2 0 0 0 0 0 0 0 0 0 0 0 0 0 0 0 0 0 0 0 0 0 0 0 10 78 190 322 384 210 273 468 836 1142 1296 1324 1341 1540 1800 1911 1928 1868 1734 1639 1637 1673 1686 1691 1646 1595 1473 1686 1851 1927 1970 2053 2128 2186 2292 2327 2277 2209 2124 2042 1919 1840 1750 1603 1493 1491 1523 1459 1571 1712
13 10 13 24 32 44 47 51 34 8 3 3 1 0 0 5 6 0 0 0 0 0 0 0 0 0 0 0 0 0 0 0 0 0 0 0 0 0 284 325 302 416 488 567 729 997 1080 1262 1467 1627 1737 1813 1919 1830 1704 1707 1708 1715 1726 1767 1756 1511 1470 1748 1922 2069 2154 2208 2191 2298 2228 2114 2079 1997 1921 1859 1741 1591 1397 1219 1166 1297 1313 1258 1448
9 8 11 17 18 30 52 54 37 21 14 11 12 26 24 11 1 0 0 0 0 0 0 0 0 0 0 0 0 0 0 0 0 0 0 0 0 0 0 166 386 455 501 564 612 778 946 1157 1427 1637 1716 1756 1814 1819 1793 1695 1544 1537 1602 1694 1754 1675 1533 1886 2039 2146 2185 2253 2307 2181 2016 1906 1955 1704 1538 1496 1493 1466 1357 1290 1244 1140 1078 1120 1186
21 59 26 35 50 73 69 50 47 51 52 45 19 9 2 0 0 0 0 0 0 0 0 0 0 0 0 0 0 0 0 0 0 0 0 0 0 0 0 0 26 363 663 770 793 853 986 1089 1318 1536 1649 1727 1767 1842 1877 1970 1911 1715 1527 1564 1664 1780 1745 1962 2114 2250 2300 2369 2447 2520 2508 2392 2078 2052 1964 1827 1560 1330 1298 1320 1292 1161 1168 1203 1187
33 36 40 64 74 43 38 23 36 47 56 10 0 0 0 0 0 0 0 0 0 0 0 0 0 0 0 0 0 0 0 0 0 0 0 0 0 0 0 0 0 0 67 334 532 662 802 912 1036 1219 1358 1446 1543 1670 1761 1740 1738 1735 1840 1815 1785 1783 1809 1856 1897 1822 1820 1860 2145 2287 2191 2072 1989 1899 1844 1756 1494 1288 1223 1170 1078 1104 1179 1208 1215
24 38 39 43 31 13 8 10 10 12 10 8 6 2 0 0 0 0 0 0 0 0 0 0 0 0 0 1 7 17 40 38 27 24 16 0 0 0 0 0 0 0 1 26 54 144 396 580 584 652 836 1056 1266 1378 1515 1637 1672 1618 1628 1653 1662 1650 1710 1790 1881 1879 1887 1982 2034 2032 1954 1923 1928 1834 1484 1408 1405 1310 1280 1292 1098 983 953 988 1021
9 20 42 51 44 18 14 8 9 13 8 6 12 4 8 3 0 0 3 1 0 0 0 0 0 6 13 20 6 1 0 0 0 0 0 0 0 0 0 0 0 2 9 11 14 4 130 497 618 654 698 746 817 933 1156 1401 1479 1462 1520 1530 1518 1583 1672 1716 1745 1794 1846 1896 1977 2020 2100 2018 1806 1508 1522 1560 1681 1676 1690 1458 1214 1000 908 879 792
6 4 3 8 6 22 19 34 39 22 17 23 14 16 18 9 3 2 2 3 2 0 0 0 0 0 11 0 0 0 0 0 0 0 0 0 0 0 0 0 5 8 4 1 0 4 6 4 146 472 742 824 894 865 882 982 1100 1260 1277 1239 1318 1377 1530 1605 1633 1659 1728 1725 1806 1731 1710 1650 1563 1590 1641 1757 1677 1576 1427 1605 1666 1685 1522 1364 1184
3 0 0 2 3 3 6 7 22 18 26 22 8 5 5 9 10 10 10 8 2 1 0 0 0 0 0 0 0 0 0 0 0 0 0 0 0 0 0 0 0 0 0 0 0 0 1 3 4 3 3 500 758 872 893 941 997 1103 1193 1226 1192 1236 1289 1328 1346 1402 1525 1558 1572 1649 1636 1637 1568 1638 1701 1805 1839 1786 1768 1890 2010 2018 1913 1792 1692
4 7 8 4 6 5 9 13 6 15 10 5 1 0 0 8 15 20 18 18 16 10 5 3 0 0 0 0 0 0 0 0 0 0 0 0 0 0 0 0 0 0 0 0 0 0 2 2 2 3 4 5 5 181 513 569 636 749 932 1033 1060 1135 1200 1278 1326 1312 1284 1320 1332 1412 1548 1644 1622 1494 1540 1625 1696 1746 1869 1976 2006 1959 1993 2024 2075
8 11 14 15 18 21 21 22 20 14 3 8 0 0 1 15 21 22 21 20 12 10 8 2 0 0 0 0 0 4 1 0 0 0 0 0 0 0 0 0 0 0 0 0 0 0 2 2 3 5 5 3 3 3 2 135 240 351 435 569 744 848 1016 1108 1219 1347 1422 1420 1386 1372 1465 1554 1552 1500 1584 1665 1569 1614 1706 1814 1915 1980 2062 2087 2076
10 15 17 19 22 24 27 23 21 14 15 14 16 17 26 16 9 13 13 11 8 9 9 3 0 0 0 0 0 2 4 4 2 1 0 0 0 0 0 0 0 0 0 0 0 0 1 2 2 3 3 2 1 3 4 4 3 3 3 3 214 498 684 877 1048 1111 1166 1284 1482 1577 1541 1610 1630 1537 1468 1567 1629 1633 1627 1695 1798 1908 2000 2066 2146
8 9 13 16 14 11 15 20 23 23 13 17 27 34 32 25 18 18 20 16 10 7 7 9 12 14 13 9 7 8 10 7 3 0 0 0 0 0 0 0 0 0 0 0 0 0 0 1 2 3 3 2 2 0 0 1 4 5 4 3 3 3 4 293 596 832 984 1079 1130 1207 1304 1356 1383 1394 1543 1658 1676 1684 1731 1807 1792 1655 1623 1730 1883
4 7 9 10 12 14 15 19 27 27 34 30 23 21 29 17 11 9 11 11 10 14 16 17 14 9 10 9 11 7 3 0 2 4 5 4 2 1 0 0 0 0 0 0 0 0 1 2 2 2 2 2 1 0 0 0 1 3 3 3 5 5 6 7 19 304 540 682 790 865 1063 1323 1335 1331 1404 1545 1631 1663 1639 1738 1722 1571 1470 1392 1355
4 6 6 8 12 14 18 15 31 29 32 33 31 30 32 32 28 29 35 34 32 28 21 10 6 10 11 12 12 10 8 7 7 6 4 2 1 1 0 0 0 0 0 0 0 0 1 3 3 2 1 1 1 0 0 0 0 0 0 0 0 0 0 0 0 1 34 179 328 435 489 544 802 1156 1303 1374 1449 1556 1667 1790 1790 1332 1262 1171 1174
5 6 9 10 12 15 21 33 35 32 39 49 53 50 46 42 46 50 51 50 48 41 27 12 9 10 14 21 24 21 15 8 4 2 2 4 2 2 2 2 0 0 0 0 0 0 1 0 0 0 0 0 0 0 0 0 0 0 0 0 0 0 0 0 0 0 0 0 0 0 9 301 298 334 396 669 962 1192 1477 1734 1962 1923 1325 1496 1616
4 9 11 21 29 30 32 31 30 32 40 45 50 53 56 55 49 51 46 36 23 17 10 6 3 2 2 12 15 15 12 11 6 2 3 4 3 3 2 1 2 0 0 0 0 0 0 0 0 0 0 1 3 2 0 0 0 0 0 0 0 0 0 0 0 0 0 0 0 0 0 0 1 2 2 5 7 7 169 180 200 182 157 105 33
17 23 25 22 26 33 30 37 43 40 38 38 39 40 43 42 54 45 30 13 7 6 4 3 2 11 17 17 17 16 13 7 4 4 3 3 2 2 3 3 2 2 0 0 0 0 0 0 0 0 0 0 0 0 0 0 0 0 0 0 0 0 0 0 0 0 0 0 0 0 0 0 0 0 0 0 0 1 2 3 4 3 4 6 7
16 20 26 26 26 25 38 47 43 29 25 24 33 43 47 40 28 25 15 8 7 13 17 19 18 14 11 8 7 7 7 6 4 3 4 4 2 3 2 3 2 2 1 0 0 0 0 0 0 0 0 0 0 0 0 0 0 0 0 0 0 0 0 0 0 0 0 0 0 0 0 1 2 2 1 0 1 2 3 4 6 7 7 6 3
9 15 16 24 26 25 17 18 23 29 29 30 39 40 30 17 11 6 2 4 7 6 5 2 1 1 1 3 3 2 2 3 3 3 2 2 3 2 0 0 0 0 0 0 0 0 0 0 0 0 0 0 0 0 0 0 0 0 0 0 0 0 0 0 0 0 0 0 0 0 0 0 0 0 0 0 0 0 0 0 0 0 0 0 0
Wind_Speed
19 18 17 13 12 12 12 12 12 11 10 11 9 10 10 10 8 9 8 7 6 7 5 4 4 3 3 3 4 4 3 4 4 4 5 4 3 3 3 3 3 1 2 0 0 1 1 0 1 2 4 6 6 6 5 3 3 2 4 6 5 6 7 7 7 7 9 8 9 6 7 8 6 7 5 5 7 7 7 11 15 17 19 19 20
21 19 17 16 17 14 12 13 12 13 10 11 11 10 11 11 10 11 9 7 8 8 6 6 5 6 4 3 2 4 4 3 4 5 5 5 3 4 5 4 2 1 1 1 2 2 1 1 0 1 2 1 4 5 4 4 3 2 2 2 4 4 6 7 6 6 7 11 11 9 8 8 7 7 8 7 6 8 8 11 13 14 16 19 20
19 18 18 17 16 17 17 13 13 12 11 10 11 12 11 12 12 10 11 10 9 9 8 7 6 6 5 5 3 2 3 4 3 4 5 5 4 4 5 6 4 1 0 1 2 2 3 1 1 1 2 2 2 2 3 4 4 4 3 3 2 2 4 6 7 5 4 6 7 8 8 9 9 7 7 7 7 9 9 10 14 14 14 16 19
17 18 18 16 15 15 16 18 14 12 11 11 11 12 13 13 13 11 11 12 10 9 8 7 8 6 5 5 5 3 4 3 3 4 5 5 5 4 5 6 5 4 2 1 1 2 2 3 3 1 1 1 2 2 2 2 3 3 4 3 3 2 4 6 7 5 6 5 8 7 8 9 8 7 8 7 6 6 8 7 8 12 12 13 17
20 18 17 19 18 19 19 17 17 15 12 13 13 12 12 14 13 13 13 13 13 11 9 9 7 8 5 4 4 4 4 4 3 3 3 5 5 5 4 6 6 5 4 3 2 1 3 3 3 2 2 2 3 3 2 2 3 3 3 2 2 2 4 5 5 6 6 5 5 7 7 7 8 7 6 6 5 6 7 8 10 10 12 12 15
20 21 21 23 23 22 19 18 17 18 21 19 15 13 13 13 14 13 13 13 14 13 12 10 8 7 7 4 4 3 3 5 5 4 3 4 5 5 5 5 6 6 6 5 4 3 2 2 3 2 2 2 3 3 2 3 2 3 4 5 3 2 2 2 3 5 5 3 4 4 7 5 6 6 4 4 4 4 6 7 10 12 13 15 15
22 21 22 23 23 23 22 20 22 22 21 23 26 25 21 14 14 14 13 13 13 14 13 12 10 8 6 6 5 4 3 3 4 3 3 3 4 5 5 6 5 6 7 6 6 5 3 4 3 3 2 2 3 3 3 3 3 3 3 4 4 3 3 3 3 3 2 2 3 3 3 4 5 4 3 6 7 10 9 8 8 10 10 14 16
23 24 25 26 25 25 29 29 25 22 22 25 25 25 27 28 22 16 15 13 12 11 14 12 12 10 8 7 5 5 5 4 4 4 3 3 4 4 5 6 6 5 5 6 8 8 7 6 5 4 3 4 4 4 4 3 4 4 3 3 2 3 3 3 3 3 3 3 3 3 5 5 8 7 7 8 8 8 8 10 8 8 8 12 17
29 30 31 33 33 32 32 31 28 25 24 25 26 27 28 26 27 26 20 14 14 11 11 14 13 11 10 9 7 6 6 6 6 6 4 3 4 5 4 4 6 6 5 5 6 6 7 8 7 6 5 2 2 2 3 3 6 5 5 6 5 5 5 5 4 5 5 7 6 8 8 7 7 8 7 6 4 4 4 9 9 10 11 11 13
25 27 31 32 31 30 31 31 30 29 27 27 27 27 24 23 22 22 25 24 20 16 11 12 14 12 12 11 9 8 7 7 7 9 8 6 4 4 5 5 5 6 6 6 5 5 5 6 7 4 2 2 3 4 4 4 4 5 6 8 7 7 7 7 6 6 6 5 5 5 5 5 5 5 5 5 4 3 3 5 8 8 12 13 14
23 25 31 34 34 33 32 31 30 30 29 28 28 25 24 22 20 20 22 21 21 23 25 18 nan 14 13 13 12 10 9 9 11 11 10 9 6 5 4 5 7 6 6 7 6 6 6 6 7 5 4 4 6 4 4 4 4 4 5 7 9 10 9 8 7 8 7 5 5 5 4 3 3 5 5 5 6 5 5 8 9 11 12 14 13
26 27 31 35 35 34 34 32 32 32 33 32 28 26 26 25 21 20 20 22 21 21 23 24 24 21 15 11 12 12 11 10 13 13 12 10 8 6 6 5 6 8 8 7 7 8 7 7 9 9 10 8 7 9 6 5 5 4 5 6 8 10 10 11 8 8 8 6 6 5 7 5 4 6 5 6 4 5 7 12 13 14 13 14 16
27 27 29 34 37 36 35 35 33 32 31 29 28 28 29 27 24 22 19 22 22 20 20 22 22 23 22 17 9 12 13 12 12 14 14 13 10 7 7 6 5 5 7 9 9 9 9 9 8 9 9 5 8 11 12 9 4 4 5 6 6 7 8 9 10 9 10 9 8 7 8 7 6 6 9 9 11 10 10 9 11 14 15 16 15
28 27 27 31 34 35 35 35 33 31 31 30 30 30 29 27 27 25 23 23 23 23 23 23 22 21 21 20 16 11 12 15 15 14 15 14 13 11 8 6 6 6 7 8 10 10 10 10 10 10 10 10 10 nan 11 12 11 10 8 7 7 4 3 5 6 6 9 10 11 9 8 12 7 8 9 11 9 8 10 10 12 12 14 15 16
29 28 29 28 29 33 35 34 34 32 31 31 33 35 33 31 31 30 27 25 27 26 24 23 23 23 22 21 21 16 14 14 17 17 16 16 15 15 11 9 8 8 8 9 nan nan nan nan nan nan 11 12 12 11 nan nan 13 12 11 10 9 9 8 9 10 11 11 11 10 9 9 11 10 9 10 13 13 13 16 16 16 18 18 17 18
32 31 31 30 31 30 31 33 34 32 32 31 31 33 33 30 29 30 31 30 29 27 27 27 27 26 25 23 21 21 22 24 26 20 15 15 14 17 15 12 10 9 8 10 11 12 12 nan nan nan nan nan 11 9 10 13 14 13 12 12 12 12 11 10 10 11 12 12 12 10 10 10 11 11 12 14 16 17 18 18 20 21 19 15 14
36 34 33 32 31 32 29 31 32 32 33 32 29 30 31 29 29 31 29 28 27 27 27 28 29 27 26 25 23 21 23 24 26 30 27 21 23 20 18 16 13 10 9 10 11 13 15 16 16 15 15 15 13 nan nan 13 17 15 15 13 13 13 12 13 12 11 12 11 11 11 11 11 11 11 12 13 16 19 21 19 19 23 18 15 15
nan nan nan nan 33 31 31 29 31 31 32 32 31 30 30 30 32 33 30 29 29 29 30 32 32 30 27 26 26 25 26 31 35 30 30 31 28 24 23 20 15 12 10 11 13 14 13 9 13 16 17 18 16 16 15 18 18 17 18 17 15 12 12 15 19 17 14 13 13 13 13 13 13 12 13 14 15 22 24 17 20 25 20 19 16
nan nan nan nan nan nan nan 33 33 32 31 30 30 30 29 28 29 31 31 29 28 31 32 33 33 32 29 28 29 29 33 28 21 16 15 23 30 29 28 26 20 16 15 13 14 15 14 13 9 11 15 16 15 17 18 22 21 20 20 20 16 13 14 19 19 19 20 20 17 17 15 15 17 18 17 16 18 23 25 20 20 22 18 17 17
nan nan nan nan nan nan nan nan nan nan 30 29 29 27 27 26 25 28 29 28 28 30 31 32 31 32 33 32 30 34 29 20 17 17 20 19 27 29 28 26 21 18 18 18 17 17 16 15 14 11 11 13 15 16 17 20 21 21 22 21 17 13 19 22 23 23 21 21 21 23 21 22 22 22 21 21 22 26 26 25 24 23 21 18 18
nan nan nan nan nan nan nan nan nan nan nan 30 28 28 28 27 26 29 30 31 30 30 31 32 32 32 33 34 33 33 27 22 21 19 19 21 27 28 24 22 21 21 21 20 20 19 20 19 19 16 14 13 13 13 15 16 19 19 20 18 16 16 21 23 22 21 22 22 23 25 25 25 25 25 25 25 26 27 29 28 27 26 24 20 18
nan nan nan nan nan nan nan nan nan nan nan nan nan 29 28 28 28 28 30 34 36 34 32 31 31 31 32 32 32 31 26 22 25 22 20 23 27 29 27 24 23 23 21 20 20 21 21 23 23 20 18 18 16 16 14 15 15 20 16 13 12 14 18 21 23 25 23 22 22 22 24 25 26 27 26 27 27 28 28 28 27 25 23 21 19
nan nan nan nan nan nan nan nan nan nan nan nan 37 35 33 31 30 30 31 34 36 36 35 34 31 30 31 31 33 33 29 26 23 24 20 19 20 23 22 24 24 25 24 22 21 21 24 25 24 20 21 21 20 18 17 16 19 20 13 11 12 13 16 20 21 22 22 22 21 20 22 26 27 28 29 28 28 28 27 25 24 23 21 18 16
nan nan nan nan nan nan nan nan nan nan nan nan nan nan nan 36 34 34 34 34 35 34 35 34 31 30 31 32 32 28 24 25 24 20 21 19 18 19 18 17 20 26 26 23 23 22 23 25 27 24 22 21 21 21 21 22 25 20 18 15 14 17 21 21 21 22 22 21 21 21 22 26 29 30 31 31 28 26 23 22 21 20 19 17 15
nan nan nan nan nan nan nan nan nan nan nan nan nan nan nan nan 42 40 41 39 37 35 34 35 34 32 31 31 31 30 26 24 24 23 20 20 20 20 19 18 18 21 24 23 23 25 24 33 37 39 39 36 30 29 30 28 27 26 24 21 21 25 24 23 22 23 22 22 22 22 23 26 29 30 32 31 28 24 22 20 19 18 17 16 15
nan nan nan nan nan nan nan nan nan nan nan nan nan nan nan nan 49 48 48 45 43 41 38 37 36 34 33 32 32 31 28 26 25 26 26 26 27 24 21 21 20 22 24 23 22 23 24 24 24 26 28 32 34 34 33 33 32 31 29 30 31 29 28 26 24 23 22 23 24 25 25 28 30 30 30 29 25 22 22 20 17 16 17 16 14
nan nan nan nan nan nan nan nan nan nan nan nan nan nan nan nan nan nan 51 51 nan 47 45 42 39 37 35 35 34 33 31 29 28 29 30 30 30 28 27 25 23 25 26 27 26 25 23 25 28 27 28 26 28 31 32 33 34 35 36 36 36 35 33 31 27 24 22 23 25 27 29 30 31 31 29 26 21 20 22 20 18 17 19 18 16
nan nan nan nan nan nan nan nan nan nan nan nan nan nan nan nan nan nan nan nan nan nan nan nan nan 42 39 38 37 36 34 33 32 31 32 35 35 33 31 30 29 29 26 26 26 26 27 30 30 32 32 31 31 32 31 32 33 35 35 37 36 36 36 33 29 26 24 25 27 29 31 32 30 28 28 25 21 22 24 22 20 17 18 20 17
nan nan nan nan nan nan nan nan nan nan nan nan nan nan nan nan nan nan nan nan nan nan nan nan nan nan nan 42 41 39 39 38 38 39 34 32 31 33 32 30 31 30 28 26 26 26 28 28 30 32 34 32 31 31 32 33 35 36 35 35 37 38 38 38 32 28 27 28 26 27 27 30 28 30 29 27 25 26 29 26 23 22 22 23 16
nan nan nan nan nan nan nan nan nan nan nan nan nan nan nan nan nan nan nan nan nan nan nan nan nan nan nan nan nan nan 41 41 41 39 36 34 32 31 30 29 28 29 28 28 30 27 26 26 28 30 32 33 32 32 32 34 35 35 35 34 35 36 36 35 32 30 32 31 29 28 28 29 29 32 32 28 28 30 31 30 27 28 26 23 19
nan nan nan nan nan nan nan nan nan nan nan nan nan nan nan nan nan nan nan nan nan nan nan nan nan nan nan nan nan nan nan nan 38 38 40 41 40 38 35 34 33 32 34 40 34 31 30 29 28 31 32 33 32 32 33 33 34 35 35 34 34 33 33 33 32 34 35 35 32 29 28 29 30 33 32 31 30 34 34 34 32 31 28 25 21
nan nan nan nan nan nan nan nan nan nan nan nan nan nan nan nan nan nan nan nan nan nan nan nan nan nan nan nan nan nan nan nan nan nan nan nan nan 42 41 40 37 38 39 43 36 31 32 31 30 29 32 32 31 33 34 33 34 35 35 33 31 33 32 30 31 33 35 35 33 30 28 28 29 31 33 34 40 37 32 31 33 33 32 31 26
nan nan nan nan nan nan nan nan nan nan nan nan nan nan nan nan nan nan nan nan nan nan nan nan nan nan nan nan nan nan nan nan nan nan nan nan nan nan 48 45 43 43 48 45 38 33 33 32 30 29 32 32 33 34 34 34 35 35 34 31 30 31 33 31 31 31 34 35 35 31 29 30 33 35 37 43 44 35 30 29 34 37 34 31 30
nan nan nan nan nan nan nan nan nan nan nan nan nan nan nan nan nan nan nan nan nan nan nan nan nan nan nan nan nan nan nan nan nan nan nan nan nan nan nan 51 47 44 47 41 39 35 35 34 33 31 32 34 35 35 34 34 35 33 32 31 30 31 34 41 40 36 36 37 36 35 36 37 40 40 41 41 38 35 29 29 36 39 37 34 33
nan nan nan nan nan nan nan nan nan nan nan nan nan nan nan nan nan nan nan nan nan nan nan nan nan nan nan nan nan nan nan nan nan nan nan nan nan nan nan nan nan 55 52 46 41 36 33 35 36 36 35 35 35 35 33 33 34 33 31 30 30 31 34 34 34 36 38 38 38 39 41 41 43 43 42 40 39 37 33 34 39 39 37 35 34
nan nan nan nan nan nan nan nan nan nan nan nan nan nan nan nan nan nan nan nan nan nan nan nan nan nan nan nan nan nan nan nan nan nan nan nan nan nan nan nan nan nan nan 46 43 39 36 34 34 36 38 37 37 36 36 34 34 34 33 32 31 30 29 30 31 33 36 41 42 42 45 44 44 43 42 41 38 37 39 40 39 38 36 36 38
nan nan nan nan nan nan nan nan nan nan nan nan nan nan nan nan nan nan nan nan nan nan nan nan nan nan nan nan nan nan nan nan nan nan nan nan nan nan nan nan nan nan nan nan nan 46 43 39 35 35 36 37 37 37 38 37 36 35 34 33 33 31 29 28 29 34 37 40 44 47 47 45 44 44 47 44 41 42 43 41 40 41 41 39 43
nan nan nan nan nan nan nan nan nan nan nan nan nan nan nan nan nan nan nan nan nan nan nan nan nan nan nan nan nan nan nan nan nan nan nan nan nan nan nan nan nan nan nan nan nan nan 52 51 49 46 43 42 41 41 40 39 39 38 37 36 35 33 29 29 33 36 37 38 41 44 47 46 45 48 49 46 42 45 44 45 49 50 49 46 45
nan nan nan nan nan nan nan nan nan nan nan nan nan nan nan nan nan nan nan nan nan nan nan nan nan nan nan nan nan nan nan nan nan nan nan nan nan nan nan nan nan nan nan nan nan nan nan nan 52 51 48 46 44 43 45 46 46 46 45 43 41 39 35 35 36 37 38 38 39 40 43 44 46 48 49 46 46 49 48 53 57 55 50 45 44
nan nan nan nan nan nan nan nan nan nan nan nan nan nan nan nan nan nan nan nan nan nan nan nan nan nan nan nan nan nan nan nan nan nan nan nan nan nan nan nan nan nan nan nan nan nan nan nan nan nan nan 52 49 46 46 46 46 47 49 50 49 45 40 38 38 38 37 38 39 40 41 41 42 44 43 43 45 48 51 53 51 47 42 39 38
nan nan nan nan nan nan nan nan nan nan nan nan nan nan nan nan nan nan nan nan nan nan nan nan nan nan nan nan nan nan nan nan nan nan nan nan nan nan nan nan nan nan nan nan nan nan nan nan nan nan nan nan nan 53 50 48 48 48 48 49 50 48 45 42 42 44 44 44 44 41 40 41 44 44 40 36 36 39 43 45 43 39 36 34 33
nan nan nan nan nan nan nan nan nan nan nan nan nan nan nan nan nan nan nan nan nan nan nan nan nan nan nan nan nan nan nan nan nan nan nan nan nan nan nan nan nan nan nan nan nan nan nan nan nan nan nan nan nan nan nan 54 52 50 50 49 49 49 48 46 45 44 43 44 46 47 48 48 48 46 42 39 37 37 39 40 38 37 34 32 31
nan nan nan nan nan nan nan nan nan nan nan nan nan nan nan nan nan nan nan nan nan nan nan nan nan nan nan nan nan nan nan nan nan nan nan nan nan nan nan nan nan nan nan nan nan nan nan nan nan nan nan nan nan nan nan nan nan nan nan nan 50 49 48 47 47 47 48 48 49 50 49 48 48 47 45 42 40 38 36 35 35 35 34 33 33
nan nan nan nan nan nan nan nan nan nan nan nan nan nan nan nan nan nan nan nan nan nan nan nan nan nan nan nan nan nan nan nan nan nan nan nan nan nan nan nan nan nan nan nan nan nan nan nan nan nan nan nan nan nan nan nan nan nan nan nan nan nan nan 48 47 49 52 52 51 49 46 45 45 45 44 42 42 40 39 39 38 39 40 41 40
nan nan nan nan nan nan nan nan nan nan nan nan nan nan nan nan nan nan nan nan nan nan nan nan nan nan nan nan nan nan nan nan nan nan nan nan nan nan nan nan nan nan nan nan nan nan nan nan nan nan nan nan nan nan nan nan nan nan nan nan nan nan nan nan nan 53 54 53 52 49 46 44 44 44 43 42 42 42 40 38 37 38 39 40 40
nan nan nan nan nan nan nan nan nan nan nan nan nan nan nan nan nan nan nan nan nan nan nan nan nan nan nan nan nan nan nan nan nan nan nan nan nan nan nan nan nan nan nan nan nan nan nan nan nan nan nan nan nan nan nan nan nan nan nan nan nan nan nan nan nan nan nan 51 52 51 49 46 44 43 41 40 40 39 37 35 35 36 35 35 35
nan nan nan nan nan nan nan nan nan nan nan nan nan nan nan nan nan nan nan nan nan nan nan nan nan nan nan nan nan nan nan nan nan nan nan nan nan nan nan nan nan nan nan nan nan nan nan nan nan nan nan nan nan nan nan nan nan nan nan nan nan nan nan nan nan nan nan nan nan nan nan 50 47 45 41 39 38 36 35 33 33 35 36 35 32
nan nan nan nan nan nan nan nan nan nan nan nan nan nan nan nan nan nan nan nan nan nan nan nan nan nan nan nan nan nan nan nan nan nan nan nan nan nan nan nan nan nan nan nan nan nan nan nan nan nan nan nan nan nan nan nan nan nan nan nan nan nan nan nan nan nan nan nan nan nan nan nan nan nan nan nan nan nan 37 37 37 37 37 36 nan
nan nan nan nan nan nan nan nan nan nan nan nan nan nan nan nan nan nan nan nan nan nan nan nan nan nan nan nan nan nan nan nan nan nan nan nan nan nan nan nan nan nan nan nan nan nan nan nan nan nan nan nan nan nan nan nan nan nan nan nan nan nan nan nan nan nan nan nan nan nan nan nan nan nan nan nan nan nan nan nan nan nan nan nan nan
nan nan nan nan nan nan nan nan nan nan nan nan nan nan nan nan nan nan nan nan nan nan nan nan nan nan nan nan nan nan nan nan nan nan nan nan nan nan nan nan nan nan nan nan nan nan nan nan nan nan nan nan nan nan nan nan nan nan nan nan nan nan nan nan nan nan nan nan nan nan nan nan nan nan nan nan nan nan nan nan nan nan nan nan nan
nan nan nan nan nan nan nan nan nan nan nan nan nan nan nan nan nan nan nan nan nan nan nan nan nan nan nan nan nan nan nan nan nan nan nan nan nan nan nan nan nan nan nan nan nan nan nan nan nan nan nan nan nan nan nan nan nan nan nan nan nan nan nan nan nan nan nan nan nan nan nan nan nan nan nan nan nan nan nan nan nan nan nan nan nan
Wind_Direction
248 240 231 227 244 263 254 251 239 229 217 217 222 220 220 226 232 226 230 233 236 242 259 276 277 279 242 235 255 278 271 256 264 265 261 261 231 231 238 267 282 297 305 319 190 269 359 358 187 184 215 208 191 200 224 215 187 233 232 229 206 207 227 217 217 183 173 211 233 227 193 225 245 275 261 280 301 309 302 299 308 318 320 323 329
235 234 234 236 223 224 261 256 253 243 229 218 221 223 221 226 234 232 239 238 234 238 263 255 282 286 280 272 253 263 285 284 253 262 264 256 242 222 228 245 257 291 319 358 77 102 195 316 239 201 222 185 181 188 196 213 225 233 255 254 233 210 231 236 227 223 182 196 207 210 211 240 244 258 261 276 288 303 315 306 310 312 314 315 322
231 237 240 231 225 224 223 240 262 256 250 229 223 222 224 227 230 239 240 241 237 240 247 254 269 284 296 303 332 289 302 307 287 269 270 263 251 225 217 237 248 234 242 47 57 91 117 131 125 164 207 184 149 158 181 186 234 240 209 237 253 228 237 257 249 228 204 195 228 227 231 237 252 254 252 276 282 297 305 311 313 311 308 310 313
243 245 244 247 244 232 237 228 227 263 259 248 233 223 226 227 229 236 240 243 248 241 249 256 254 265 288 299 330 333 326 327 326 287 288 277 259 240 220 218 228 232 230 184 123 128 121 121 120 129 143 137 131 122 131 164 163 235 259 248 254 231 228 250 260 260 250 241 229 253 249 246 251 256 264 257 255 261 286 300 309 316 320 311 309
244 240 238 244 245 244 231 235 227 222 253 253 243 238 229 227 229 233 236 238 246 251 250 251 249 252 271 293 309 340 333 343 347 337 282 273 274 260 237 226 224 215 212 210 173 146 109 114 114 127 144 119 125 123 94 103 112 137 159 226 272 267 258 265 265 272 265 252 236 249 261 261 270 264 265 260 253 261 270 289 299 308 312 325 305
244 234 230 235 241 243 240 231 231 235 224 231 239 239 237 230 233 235 234 235 236 249 260 254 255 254 251 267 282 311 325 339 355 2 332 274 268 259 253 239 230 228 219 216 201 195 167 130 122 125 135 123 130 137 140 109 117 109 111 121 133 170 168 187 257 271 281 285 279 223 250 262 248 265 263 281 283 282 291 292 289 298 302 303 311
248 244 236 235 237 235 232 229 230 229 236 237 230 221 217 224 232 236 240 238 235 240 251 258 259 260 252 254 267 273 297 315 334 347 338 300 283 271 262 253 237 228 232 232 223 211 204 197 191 184 167 168 171 180 185 172 150 129 104 101 122 137 140 145 155 159 184 209 225 272 246 248 275 249 264 291 303 314 319 307 305 306 305 307 315
246 247 242 236 230 231 233 237 236 233 234 237 233 231 222 210 206 225 246 244 246 242 244 258 259 264 266 263 262 269 277 282 286 303 313 316 299 283 283 263 250 238 227 232 231 227 225 220 215 216 207 200 210 207 227 213 216 195 187 213 194 186 174 179 197 220 217 220 238 226 254 262 258 280 279 275 281 285 311 326 333 320 319 312 316
239 237 233 227 222 223 230 236 239 239 233 232 236 237 227 219 216 210 220 248 257 252 247 258 265 263 269 270 268 266 278 283 280 283 290 299 297 291 288 278 265 254 244 240 238 232 229 229 229 230 238 261 348 295 270 269 243 232 219 237 236 239 226 217 222 240 247 258 248 256 261 265 275 276 269 281 306 345 329 307 316 321 321 310 311
245 240 234 227 221 226 232 234 237 237 236 235 238 241 240 240 238 233 231 223 229 238 258 266 269 279 274 273 272 269 271 271 288 326 313 287 284 287 271 268 262 259 257 247 240 243 242 240 239 255 293 347 342 350 352 351 332 278 256 255 256 256 253 249 250 254 254 249 251 258 253 261 271 282 287 297 310 291 268 290 303 306 290 299 301
250 238 228 223 219 221 228 235 238 238 236 241 245 247 252 248 244 246 243 239 239 242 232 226 nan 266 278 278 282 278 278 278 315 318 326 331 298 272 275 261 251 254 257 258 250 246 239 244 246 242 228 229 254 315 333 343 343 342 322 297 283 280 269 270 264 266 267 264 255 256 263 254 266 286 294 293 283 295 290 283 296 292 298 299 302
251 244 231 226 226 225 225 231 238 239 242 246 245 242 244 244 240 244 244 245 244 242 244 241 227 218 229 264 281 280 274 290 309 312 316 320 311 280 265 262 257 249 246 251 254 251 246 244 243 247 248 248 238 253 280 327 340 346 349 329 317 318 309 293 282 266 263 264 264 274 270 281 284 283 283 281 291 281 291 290 291 295 298 300 298
249 248 242 236 232 229 228 229 232 236 238 242 243 243 243 243 243 240 240 245 247 247 249 247 239 232 218 217 249 277 272 284 296 306 308 309 314 298 251 259 259 253 248 246 247 250 250 246 237 239 241 239 244 244 247 249 278 359 4 6 350 326 317 321 310 293 279 278 281 277 286 278 279 283 287 287 288 293 284 285 292 299 302 302 309
243 242 243 243 240 238 236 233 229 228 230 232 236 238 236 233 232 235 239 242 241 242 242 243 245 243 237 225 220 237 272 288 300 300 301 306 308 296 260 258 254 252 252 247 244 249 252 253 248 242 245 246 247 nan 243 251 251 248 243 240 245 257 303 310 297 295 283 284 286 289 286 283 299 293 294 289 292 303 301 303 296 294 296 307 308
246 245 241 240 241 241 240 238 236 233 231 232 234 234 234 226 220 223 231 235 237 240 244 247 247 244 238 232 225 223 239 283 299 303 302 303 305 298 277 266 253 249 250 248 nan nan nan nan nan nan 251 253 255 259 nan nan 248 247 248 251 256 257 260 264 270 274 275 273 281 291 290 289 296 298 294 295 304 304 302 303 304 299 296 293 290
246 246 244 240 240 240 243 243 237 233 234 235 234 235 232 229 224 227 231 235 240 242 241 240 238 236 235 232 229 224 222 224 243 253 264 276 290 281 278 276 269 260 255 253 251 248 248 nan nan nan nan nan 259 277 270 258 255 254 252 247 248 254 259 273 291 291 289 287 287 292 292 299 307 305 304 301 295 290 286 282 280 281 284 292 303
247 246 246 242 242 240 245 249 248 239 237 235 236 232 227 224 231 238 236 237 239 243 246 246 244 241 237 237 239 233 228 220 218 244 256 255 253 254 256 262 268 269 267 263 260 256 253 253 253 251 253 255 264 nan nan 271 259 263 261 254 250 249 253 261 282 302 305 308 312 316 319 319 322 327 324 320 305 292 282 279 286 286 293 300 297
nan nan nan nan 242 243 242 252 251 250 247 240 235 229 225 225 227 228 234 238 239 240 241 242 242 241 237 236 240 241 239 232 234 241 257 271 277 270 265 260 255 267 273 270 264 260 261 274 264 254 251 251 263 275 279 274 265 266 267 266 261 257 257 262 263 273 300 311 316 320 323 323 321 317 312 312 310 291 290 298 293 288 298 302 301
nan nan nan nan nan nan nan 244 247 247 249 248 248 241 235 230 224 225 226 232 238 240 240 241 242 242 240 236 239 247 249 250 260 261 264 274 274 270 271 271 270 270 268 267 267 262 260 260 268 264 256 252 257 266 274 274 268 269 270 269 272 279 280 275 274 273 273 275 277 281 280 291 297 299 304 319 313 299 296 301 294 296 302 303 301
nan nan nan nan nan nan nan nan nan nan 252 255 255 257 257 253 246 236 231 231 232 238 241 243 241 241 241 237 235 247 256 250 254 261 246 237 257 255 254 258 261 267 270 268 266 268 267 263 261 264 262 254 253 257 264 278 272 268 268 269 272 277 273 273 276 279 281 287 288 291 296 295 294 294 294 293 294 298 303 303 302 303 305 306 304
nan nan nan nan nan nan nan nan nan nan nan 252 253 255 256 255 252 245 237 233 234 237 239 238 236 236 237 238 237 246 248 246 242 257 267 268 268 270 258 256 253 253 255 260 266 271 273 272 266 274 282 279 275 272 270 276 280 273 275 277 283 278 270 268 271 282 279 281 283 286 289 288 288 288 288 290 292 294 298 303 306 307 309 309 306
nan nan nan nan nan nan nan nan nan nan nan nan nan 248 251 253 252 249 244 239 235 237 238 238 237 237 239 241 243 246 249 252 247 256 265 269 276 284 268 265 264 258 257 257 258 259 265 268 269 274 283 285 286 287 289 285 291 280 284 300 301 290 280 276 273 273 275 277 278 281 284 284 284 285 286 288 291 293 298 301 306 310 310 311 310
nan nan nan nan nan nan nan nan nan nan nan nan 253 249 247 250 249 249 247 246 243 240 238 238 238 238 240 243 243 238 237 245 250 249 260 268 268 274 278 268 268 264 260 260 262 256 254 256 259 270 280 285 289 292 291 293 279 278 289 281 281 287 283 277 276 277 278 279 279 280 280 282 282 283 285 286 288 292 297 301 303 304 304 305 307
nan nan nan nan nan nan nan nan nan nan nan nan nan nan nan 249 252 251 251 251 251 250 248 246 244 241 239 238 243 249 242 240 246 252 250 259 263 269 268 267 264 262 262 263 267 265 257 256 253 252 264 277 282 280 278 277 278 286 284 277 269 264 269 275 279 280 279 279 280 281 280 280 279 279 282 284 286 290 294 295 296 299 301 303 309
nan nan nan nan nan nan nan nan nan nan nan nan nan nan nan nan 251 254 253 250 251 252 254 254 253 249 244 242 241 243 245 242 244 245 248 249 258 263 267 268 265 266 256 257 260 262 257 250 246 244 242 241 246 253 258 264 270 268 269 271 271 269 274 279 280 278 280 282 281 280 278 279 280 281 280 279 279 278 277 277 284 292 300 305 308
nan nan nan nan nan nan nan nan nan nan nan nan nan nan nan nan 255 255 255 253 252 251 250 253 256 255 252 249 247 247 245 244 243 243 243 249 254 259 267 269 268 268 266 253 247 241 238 234 233 236 242 249 254 256 256 256 261 269 269 266 265 268 268 269 273 276 279 280 279 278 276 274 277 280 279 275 270 271 272 271 275 281 285 289 295
nan nan nan nan nan nan nan nan nan nan nan nan nan nan nan nan nan nan 255 256 nan 255 253 251 252 253 255 253 253 252 252 249 244 241 242 248 257 261 263 262 266 263 261 263 260 259 258 258 257 252 252 256 259 257 253 252 252 259 263 266 268 269 268 267 267 269 272 272 274 275 274 275 274 272 271 267 263 262 268 267 266 269 272 273 279
nan nan nan nan nan nan nan nan nan nan nan nan nan nan nan nan nan nan nan nan nan nan nan nan nan 253 252 254 255 255 256 257 257 252 249 250 250 251 258 265 268 273 271 268 266 263 261 260 260 258 257 256 259 261 262 262 261 259 261 263 265 268 271 272 267 265 264 264 265 269 271 275 275 272 267 263 260 258 260 259 257 253 258 258 256
nan nan nan nan nan nan nan nan nan nan nan nan nan nan nan nan nan nan nan nan nan nan nan nan nan nan nan 256 255 254 256 258 261 262 256 252 254 259 255 255 257 258 264 260 263 265 266 265 265 263 261 256 252 253 254 256 255 258 260 262 262 264 266 268 269 269 268 265 265 268 269 270 268 265 260 254 253 254 257 256 256 254 252 256 252
nan nan nan nan nan nan nan nan nan nan nan nan nan nan nan nan nan nan nan nan nan nan nan nan nan nan nan nan nan nan 258 260 259 254 253 252 248 249 257 261 262 264 259 248 259 265 270 273 273 267 261 257 252 249 249 251 253 255 258 261 266 268 270 270 270 267 265 265 261 260 261 262 261 261 259 256 254 256 259 262 258 260 259 260 257
nan nan nan nan nan nan nan nan nan nan nan nan nan nan nan nan nan nan nan nan nan nan nan nan nan nan nan nan nan nan nan nan 256 258 257 256 258 259 256 256 258 260 260 258 261 271 275 277 276 273 267 262 258 254 253 253 254 255 254 257 264 270 273 272 270 268 267 266 265 263 262 263 263 263 264 263 260 258 259 264 267 270 272 272 273
nan nan nan nan nan nan nan nan nan nan nan nan nan nan nan nan nan nan nan nan nan nan nan nan nan nan nan nan nan nan nan nan nan nan nan nan nan 262 263 263 265 266 265 271 269 269 272 273 273 272 269 267 264 260 259 256 255 254 253 255 259 264 267 267 268 269 271 272 271 268 266 266 266 267 268 267 266 266 271 275 281 284 285 286 288
nan nan nan nan nan nan nan nan nan nan nan nan nan nan nan nan nan nan nan nan nan nan nan nan nan nan nan nan nan nan nan nan nan nan nan nan nan nan 262 265 268 270 270 271 271 268 268 270 269 269 268 266 262 260 256 254 254 255 257 259 259 257 259 262 268 267 267 267 265 263 260 257 255 255 258 262 270 277 283 284 283 283 283 285 287
nan nan nan nan nan nan nan nan nan nan nan nan nan nan nan nan nan nan nan nan nan nan nan nan nan nan nan nan nan nan nan nan nan nan nan nan nan nan nan 264 265 272 275 268 267 266 266 266 267 267 265 263 263 262 259 253 251 252 257 263 264 261 259 260 263 264 263 264 262 256 251 251 253 255 259 265 272 278 282 278 271 273 278 284 289
nan nan nan nan nan nan nan nan nan nan nan nan nan nan nan nan nan nan nan nan nan nan nan nan nan nan nan nan nan nan nan nan nan nan nan nan nan nan nan nan nan 263 267 268 265 262 260 261 263 264 264 263 263 264 262 259 255 254 256 262 265 264 264 265 264 263 263 261 260 259 258 257 257 259 262 265 268 272 272 265 265 273 280 284 285
nan nan nan nan nan nan nan nan nan nan nan nan nan nan nan nan nan nan nan nan nan nan nan nan nan nan nan nan nan nan nan nan nan nan nan nan nan nan nan nan nan nan nan 261 262 260 259 258 258 258 258 261 263 264 264 262 259 256 258 264 269 269 266 265 266 264 259 258 260 261 260 258 259 260 260 261 266 269 266 265 268 275 279 279 280
nan nan nan nan nan nan nan nan nan nan nan nan nan nan nan nan nan nan nan nan nan nan nan nan nan nan nan nan nan nan nan nan nan nan nan nan nan nan nan nan nan nan nan nan nan 251 251 255 260 260 259 259 262 263 263 263 260 257 258 263 266 268 267 265 264 264 261 255 255 260 265 266 267 267 267 267 267 267 268 268 269 272 274 274 273
nan nan nan nan nan nan nan nan nan nan nan nan nan nan nan nan nan nan nan nan nan nan nan nan nan nan nan nan nan nan nan nan nan nan nan nan nan nan nan nan nan nan nan nan nan nan 247 245 245 247 247 249 252 255 259 262 262 259 257 257 260 262 266 264 263 263 261 255 253 257 265 269 270 270 272 273 273 272 271 268 268 273 276 274 275
nan nan nan nan nan nan nan nan nan nan nan nan nan nan nan nan nan nan nan nan nan nan nan nan nan nan nan nan nan nan nan nan nan nan nan nan nan nan nan nan nan nan nan nan nan nan nan nan 245 246 248 250 251 251 253 254 255 256 256 255 256 256 259 261 262 260 257 253 252 255 260 265 269 273 277 280 276 274 275 270 270 277 279 274 275
nan nan nan nan nan nan nan nan nan nan nan nan nan nan nan nan nan nan nan nan nan nan nan nan nan nan nan nan nan nan nan nan nan nan nan nan nan nan nan nan nan nan nan nan nan nan nan nan nan nan nan 247 250 252 253 253 254 256 257 256 253 250 251 254 257 256 249 245 247 253 260 268 276 281 284 284 281 276 272 273 275 280 281 277 279
nan nan nan nan nan nan nan nan nan nan nan nan nan nan nan nan nan nan nan nan nan nan nan nan nan nan nan nan nan nan nan nan nan nan nan nan nan nan nan nan nan nan nan nan nan nan nan nan nan nan nan nan nan 249 251 253 254 255 256 258 259 258 254 250 250 250 244 238 240 250 263 273 279 283 288 291 287 279 273 275 277 278 281 283 284
nan nan nan nan nan nan nan nan nan nan nan nan nan nan nan nan nan nan nan nan nan nan nan nan nan nan nan nan nan nan nan nan nan nan nan nan nan nan nan nan nan nan nan nan nan nan nan nan nan nan nan nan nan nan nan 250 252 254 254 255 257 258 257 254 251 249 247 244 243 250 258 263 268 273 275 275 279 278 276 277 280 279 280 282 283
nan nan nan nan nan nan nan nan nan nan nan nan nan nan nan nan nan nan nan nan nan nan nan nan nan nan nan nan nan nan nan nan nan nan nan nan nan nan nan nan nan nan nan nan nan nan nan nan nan nan nan nan nan nan nan nan nan nan nan nan 254 255 255 253 250 250 250 248 249 253 260 264 268 272 275 276 278 278 277 279 285 287 285 285 286
nan nan nan nan nan nan nan nan nan nan nan nan nan nan nan nan nan nan nan nan nan nan nan nan nan nan nan nan nan nan nan nan nan nan nan nan nan nan nan nan nan nan nan nan nan nan nan nan nan nan nan nan nan nan nan nan nan nan nan nan nan nan nan 254 253 250 250 252 253 255 260 264 267 271 274 274 274 275 276 281 288 292 291 289 289
nan nan nan nan nan nan nan nan nan nan nan nan nan nan nan nan nan nan nan nan nan nan nan nan nan nan nan nan nan nan nan nan nan nan nan nan nan nan nan nan nan nan nan nan nan nan nan nan nan nan nan nan nan nan nan nan nan nan nan nan nan nan nan nan nan 252 252 254 256 258 260 262 265 267 271 273 276 277 279 283 286 287 288 289 289
nan nan nan nan nan nan nan nan nan nan nan nan nan nan nan nan nan nan nan nan nan nan nan nan nan nan nan nan nan nan nan nan nan nan nan nan nan nan nan nan nan nan nan nan nan nan nan nan nan nan nan nan nan nan nan nan nan nan nan nan nan nan nan nan nan nan nan 258 261 263 264 264 265 267 269 269 270 274 279 284 286 288 287 287 288
nan nan nan nan nan nan nan nan nan nan nan nan nan nan nan nan nan nan nan nan nan nan nan nan nan nan nan nan nan nan nan nan nan nan nan nan nan nan nan nan nan nan nan nan nan nan nan nan nan nan nan nan nan nan nan nan nan nan nan nan nan nan nan nan nan nan nan nan nan nan nan 265 265 267 269 270 272 275 278 282 283 283 282 281 279
nan nan nan nan nan nan nan nan nan nan nan nan nan nan nan nan nan nan nan nan nan nan nan nan nan nan nan nan nan nan nan nan nan nan nan nan nan nan nan nan nan nan nan nan nan nan nan nan nan nan nan nan nan nan nan nan nan nan nan nan nan nan nan nan nan nan nan nan nan nan nan nan nan nan nan nan nan nan 279 280 280 279 278 277 nan
nan nan nan nan nan nan nan nan nan nan nan nan nan nan nan nan nan nan nan nan nan nan nan nan nan nan nan nan nan nan nan nan nan nan nan nan nan nan nan nan nan nan nan nan nan nan nan nan nan nan nan nan nan nan nan nan nan nan nan nan nan nan nan nan nan nan nan nan nan nan nan nan nan nan nan nan nan nan nan nan nan nan nan nan nan
nan nan nan nan nan nan nan nan nan nan nan nan nan nan nan nan nan nan nan nan nan nan nan nan nan nan nan nan nan nan nan nan nan nan nan nan nan nan nan nan nan nan nan nan nan nan nan nan nan nan nan nan nan nan nan nan nan nan nan nan nan nan nan nan nan nan nan nan nan nan nan nan nan nan nan nan nan nan nan nan nan nan nan nan nan
nan nan nan nan nan nan nan nan nan nan nan nan nan nan nan nan nan nan nan nan nan nan nan nan nan nan nan nan nan nan nan nan nan nan nan nan nan nan nan nan nan nan nan nan nan nan nan nan nan nan nan nan nan nan nan nan nan nan nan nan nan nan nan nan nan nan nan nan nan nan nan nan nan nan nan nan nan nan nan nan nan nan nan nan nan